• En España
  • Lista de países
  • Para 7 días
  • Temperatura del agua
  • Mapa Satelital
  • El tiempo en el mapa
  • Informadores
  • user-avatar
    Iniciar sesión

    Tiempo cada hora Elashka

    Hoy, 21 Julio, Sábado

    Tiempo Temperatura Precipitaciones Viento Presión Humedad
    00:00 +20°C° 0,8 mm 1 mps 730 mmHg 92%
    01:00 +20°C° 0,8 mm 1 mps 730 mmHg 92%
    02:00 +20°C° 0 mm 1 mps 730 mmHg 93%
    03:00 +20°C° 0,9 mm 1 mps 730 mmHg 94%
    04:00 +20°C° 0,9 mm 1 mps 730 mmHg 94%
    05:00 +20°C° 0,9 mm 1 mps 730 mmHg 94%
    06:00 +21°C° 0,4 mm 1 mps 730 mmHg 91%
    07:00 +22°C° 0,4 mm 1 mps 730 mmHg 89%
    08:00 +23°C° 0 mm 2 mps 731 mmHg 87%
    09:00 +24°C° 1,1 mm 2 mps 731 mmHg 83%
    10:00 +24°C° 1,1 mm 2 mps 731 mmHg 80%
    11:00 +25°C° 1,1 mm 3 mps 731 mmHg 77%
    12:00 +26°C° 0,8 mm 3 mps 731 mmHg 76%
    13:00 +26°C° 0,8 mm 3 mps 731 mmHg 76%
    14:00 +26°C° 0 mm 3 mps 731 mmHg 75%
    15:00 +26°C° 0,6 mm 3 mps 731 mmHg 78%
    16:00 +25°C° 0,6 mm 3 mps 731 mmHg 80%
    17:00 +25°C° 0,6 mm 3 mps 731 mmHg 83%
    18:00 +24°C° 0,4 mm 3 mps 731 mmHg 86%
    19:00 +22°C° 0,4 mm 3 mps 731 mmHg 89%
    20:00 +21°C° 0,4 mm 2 mps 731 mmHg 91%
    21:00 +20°C° 0 mm 2 mps 731 mmHg 93%
    22:00 +20°C° 0 mm 3 mps 731 mmHg 94%
    23:00 +19°C° 0 mm 3 mps 731 mmHg 95%

    Mañana, 22 Julio, Domingo

    Tiempo Temperatura Precipitaciones Viento Presión Humedad
    00:00 +19°C° 0 mm 3 mps 731 mmHg 96%
    01:00 +18°C° 0 mm 3 mps 731 mmHg 96%
    02:00 +18°C° 0 mm 3 mps 731 mmHg 97%
    03:00 +18°C° 0 mm 3 mps 731 mmHg 97%
    04:00 +18°C° 0 mm 3 mps 731 mmHg 97%
    05:00 +19°C° 0 mm 4 mps 731 mmHg 97%
    06:00 +19°C° 0 mm 4 mps 731 mmHg 95%
    07:00 +20°C° 0 mm 4 mps 732 mmHg 93%
    08:00 +21°C° 0 mm 4 mps 732 mmHg 91%
    09:00 +21°C° 0,1 mm 5 mps 732 mmHg 90%
    10:00 +22°C° 0,1 mm 5 mps 732 mmHg 88%
    11:00 +22°C° 0,1 mm 6 mps 732 mmHg 87%
    12:00 +22°C° 0,3 mm 6 mps 732 mmHg 86%
    13:00 +23°C° 0,3 mm 6 mps 732 mmHg 84%
    14:00 +23°C° 0,3 mm 6 mps 732 mmHg 83%
    15:00 +23°C° 0,4 mm 5 mps 732 mmHg 83%
    16:00 +23°C° 0,4 mm 5 mps 732 mmHg 84%
    17:00 +23°C° 0,4 mm 5 mps 732 mmHg 85%
    18:00 +22°C° 0,2 mm 5 mps 732 mmHg 88%
    19:00 +20°C° 0,2 mm 5 mps 732 mmHg 90%
    20:00 +19°C° 0,2 mm 5 mps 732 mmHg 93%
    21:00 +19°C° 0,1 mm 5 mps 732 mmHg 93%
    22:00 +19°C° 0,1 mm 5 mps 732 mmHg 94%
    23:00 +17°C° 0,1 mm 5 mps 732 mmHg 94%

    Pasado mañana, 23 Julio, Lunes

    Tiempo Temperatura Precipitaciones Viento Presión Humedad
    00:00 +17°C° 0 mm 5 mps 732 mmHg 94%
    01:00 +17°C° 0 mm 5 mps 732 mmHg 94%
    02:00 +17°C° 0 mm 5 mps 732 mmHg 95%
    03:00 +17°C° 0,1 mm 5 mps 732 mmHg 95%
    04:00 +17°C° 0,1 mm 5 mps 732 mmHg 95%
    05:00 +16°C° 0,1 mm 5 mps 732 mmHg 94%
    06:00 +16°C° 0,1 mm 5 mps 732 mmHg 94%
    07:00 +16°C° 0,1 mm 5 mps 732 mmHg 94%
    08:00 +16°C° 0,1 mm 5 mps 732 mmHg 93%
    09:00 +17°C° 0,1 mm 5 mps 732 mmHg 93%
    10:00 +17°C° 0,1 mm 5 mps 732 mmHg 92%
    11:00 +17°C° 0,1 mm 5 mps 732 mmHg 91%
    12:00 +17°C° 0,1 mm 5 mps 732 mmHg 91%
    13:00 +19°C° 0,1 mm 5 mps 732 mmHg 90%
    14:00 +19°C° 0,1 mm 5 mps 732 mmHg 90%
    15:00 +19°C° 0,1 mm 5 mps 732 mmHg 90%
    16:00 +19°C° 0,1 mm 5 mps 732 mmHg 90%
    17:00 +20°C° 0,1 mm 4 mps 732 mmHg 91%
    18:00 +19°C° 0,2 mm 4 mps 732 mmHg 92%
    19:00 +19°C° 0,2 mm 4 mps 732 mmHg 93%
    20:00 +19°C° 0,2 mm 4 mps 733 mmHg 94%
    21:00 +19°C° 0,3 mm 4 mps 733 mmHg 95%
    22:00 +19°C° 0,3 mm 4 mps 733 mmHg 96%
    23:00 +18°C° 0,3 mm 4 mps 733 mmHg 97%

    24 Julio, Martes

    Tiempo Temperatura Precipitaciones Viento Presión Humedad
    00:00 +18°C° 0 mm 4 mps 733 mmHg 97%
    01:00 +18°C° 0 mm 4 mps 733 mmHg 97%
    02:00 +18°C° 0 mm 3 mps 733 mmHg 97%
    03:00 +18°C° 0,1 mm 3 mps 733 mmHg 97%
    04:00 +18°C° 0,1 mm 3 mps 733 mmHg 97%
    05:00 +18°C° 0,1 mm 3 mps 733 mmHg 97%
    06:00 +20°C° 0 mm 3 mps 733 mmHg 94%
    07:00 +21°C° 0 mm 3 mps 734 mmHg 91%
    08:00 +22°C° 0 mm 3 mps 734 mmHg 88%
    09:00 +23°C° 0,4 mm 4 mps 734 mmHg 82%
    10:00 +26°C° 0,4 mm 4 mps 734 mmHg 76%
    11:00 +27°C° 0,4 mm 4 mps 734 mmHg 71%
    12:00 +27°C° 0,6 mm 4 mps 735 mmHg 70%
    13:00 +27°C° 0,6 mm 4 mps 735 mmHg 70%
    14:00 +27°C° 0,6 mm 4 mps 735 mmHg 70%
    15:00 +27°C° 0,3 mm 4 mps 735 mmHg 74%
    16:00 +26°C° 0,3 mm 4 mps 735 mmHg 77%
    17:00 +26°C° 0,3 mm 4 mps 735 mmHg 81%
    18:00 +24°C° 0,7 mm 3 mps 735 mmHg 85%
    19:00 +22°C° 0,7 mm 3 mps 736 mmHg 89%
    20:00 +20°C° 0,7 mm 3 mps 736 mmHg 93%
    21:00 +20°C° 0,8 mm 4 mps 736 mmHg 93%
    22:00 +20°C° 0,8 mm 4 mps 736 mmHg 93%
    23:00 +19°C° 0,8 mm 4 mps 736 mmHg 92%

    25 Julio, Miércoles

    Tiempo Temperatura Precipitaciones Viento Presión Humedad
    00:00 +19°C° 0,1 mm 4 mps 736 mmHg 92%
    01:00 +17°C° 0,1 mm 5 mps 736 mmHg 92%
    02:00 +17°C° 0,1 mm 5 mps 736 mmHg 92%
    03:00 +17°C° 0,4 mm 5 mps 736 mmHg 92%
    04:00 +17°C° 0,4 mm 6 mps 736 mmHg 92%
    05:00 +17°C° 0,4 mm 6 mps 736 mmHg 91%
    06:00 +17°C° 0,3 mm 6 mps 736 mmHg 91%
    07:00 +17°C° 0,3 mm 6 mps 736 mmHg 91%
    08:00 +19°C° 0,3 mm 6 mps 737 mmHg 91%
    09:00 +19°C° 0,1 mm 6 mps 737 mmHg 89%
    10:00 +20°C° 0,1 mm 6 mps 737 mmHg 87%
    11:00 +21°C° 0,1 mm 6 mps 737 mmHg 85%
    12:00 +22°C° 0,1 mm 6 mps 738 mmHg 81%
    13:00 +23°C° 0,1 mm 6 mps 738 mmHg 77%
    14:00 +24°C° 0,1 mm 6 mps 738 mmHg 74%
    15:00 +24°C° 0 mm 6 mps 738 mmHg 75%
    16:00 +25°C° 0 mm 5 mps 738 mmHg 76%
    17:00 +25°C° 0 mm 4 mps 738 mmHg 77%
    18:00 +23°C° 0 mm 4 mps 738 mmHg 79%
    19:00 +21°C° 0 mm 4 mps 738 mmHg 81%
    20:00 +20°C° 0 mm 4 mps 739 mmHg 83%
    21:00 +20°C° 0 mm 4 mps 739 mmHg 81%
    22:00 +19°C° 0 mm 4 mps 739 mmHg 80%
    23:00 +18°C° 0 mm 4 mps 739 mmHg 78%

    26 Julio, Jueves

    Tiempo Temperatura Precipitaciones Viento Presión Humedad
    00:00 +18°C° 0 mm 4 mps 739 mmHg 78%
    01:00 +18°C° 0 mm 3 mps 739 mmHg 79%
    02:00 +17°C° 0 mm 3 mps 739 mmHg 79%
    03:00 +17°C° 0 mm 3 mps 739 mmHg 81%
    04:00 +17°C° 0 mm 3 mps 739 mmHg 84%
    05:00 +17°C° 0 mm 3 mps 739 mmHg 87%
    06:00 +18°C° 0 mm 3 mps 740 mmHg 84%
    07:00 +20°C° 0 mm 3 mps 740 mmHg 82%
    08:00 +22°C° 0 mm 4 mps 740 mmHg 79%
    09:00 +23°C° 0 mm 4 mps 740 mmHg 76%
    10:00 +25°C° 0 mm 5 mps 740 mmHg 72%
    11:00 +27°C° 0 mm 5 mps 740 mmHg 69%
    12:00 +27°C° 0 mm 5 mps 740 mmHg 68%
    13:00 +28°C° 0 mm 5 mps 740 mmHg 67%
    14:00 +29°C° 0 mm 6 mps 740 mmHg 66%
    15:00 +29°C° 0 mm 5 mps 740 mmHg 69%
    16:00 +28°C° 0 mm 4 mps 740 mmHg 72%
    17:00 +28°C° 0 mm 4 mps 740 mmHg 75%
    18:00 +27°C° 0 mm 4 mps 740 mmHg 78%
    19:00 +25°C° 0 mm 4 mps 740 mmHg 81%
    20:00 +23°C° 0 mm 4 mps 741 mmHg 84%
    21:00 +22°C° 0 mm 4 mps 741 mmHg 85%
    22:00 +22°C° 0 mm 4 mps 741 mmHg 85%
    23:00 +21°C° 0 mm 4 mps 741 mmHg 85%
    Mostrar más